Location: Moscow
(55.7500°N, 37.5830°E)
Time: 22:34:11
(UTC+03:00)

COSMOS 2251 DEB - Pass Details

Date: 08 July 2022
Orbit: 738 x 847 km, 74.1° (Epoch: 17 August)

Event Time Altitude Azimuth Distance (km) Brightness Sun altitude
Rises 02:30:11 0° 332° (NNW) 3,244 ? -8.0°
Reaches altitude 10° 02:32:44 10° 340° (NNW) 2,299 ? -7.8°
Maximum altitude 02:37:37 40° 50° (NE) 1,102 ? -7.5°
Drops below altitude 10° 02:42:23 10° 120° (ESE) 2,251 ? -7.2°
Sets 02:44:52 0° 128° (SE) 3,167 ? -7.0°
